STARLINK-34304, 64224

Orbit data source: Space-Track

STARLINK-34304, 64224 is a payload satellite owned by SpaceX/Seattle (US) in LEO that was launched on Thu, 05 Jun 2025 UTC via an FALCON 9 launch vehicle from the Air Force Western Test Range (AFWTR). Payload-class satellites include a variety of spacecraft equipped with specific instruments for various scientific and technological missions. These include communications satellites like Starlink; space stations such as the ISS; scientific satellites like the Hubble; Earth observation satellites from companies like Planet Labs, Umbra, and HawkEye 360; GPS; miniature CubeSats for education and research; and military/defense satellites.

Loading next visibility...
Identifier
64224, 2025-117X
Orbit
LEO
Last TLE update
9 hours ago
Origin
Manufacturer
SpaceX/Seattle
Mission
Operational spacecraft
Bus & Motor
STARLINK V2MO, Unknown motor
Mass
575 kg wet, ~530 kg dry
Launch date (UTC)
2025-06-05 (2 weeks ago)
Launch vehicle
FALCON 9
Launch site
Air Force Western Test Range (AFWTR)
Object type
Payload
Rocket body
Debris
Shape & HBR
Unknown
Radar Cross Section
Large (>1 m²)

Expand to show TLE details & history

TLE from 9 hours ago
0 STARLINK-34304
1 64224U 25117X   25169.91668981 -.01464805  00000-0 -13955-1 0  9999
2 64224  53.1598 190.4307 0001248  83.8462 207.7984 15.68843620  4117
Epoch: 2025-06-18T22:00Z
TLE epoch observation values (Epoch: 2025-06-18T22:00:01.999Z)
Latitude
-48.24771°
Longitude
-103.54705°
Altitude
379.486 km
Speed
7.681 km/s
True Right ascension
08h 55m 24s
True Declination
-48° 04' 02"
Sunlit
Object was in daylight at epoch
Visualization orbit readout
Latitude
36.08367°
Longitude
98.40413°
Altitude
367.678 km
Speed
7.694 km/s
Apparent Right ascension
01h 36m 01s
Apparent Declination
-1° 04' 02"
Sunlit
Object is in daylight
Visualization observer readout
Local Sidereal Time
17:20:38
Azimuth
67.555° E
Elevation
-26.044°
Doppler factor
1
Orbital elements
Apogee altitude
363.309 km
Perigee altitude
361.627 km
Semi-major axis
6,740.605 km
Eccentricity
0.00012
Inclination
53.1598°
RAAN
190.4307°
Arg. of periapsis
83.8462°
True anomaly
Unknown
Mean anomaly
207.7984°
Eccentric anomaly
Unknown
Mean motion
3.92189 °/min
Orbital period
91.79 mins
BSTAR
-0.013955
Loading maneuver chart data...
Loading SW <> Apogee altitude chart data...
Loading historical data...
Loading historical data...
Loading historical data...
Loading historical data...
Loading historical data...
Loading historical data...
Loading historical data...

STARLINK-34304 Visibility forecast

Observer location: undefined°, undefined°

Span
Click to sort rows by Start time (UTC) header in descending order
Start Az.
Max El. time (UTC)
Max El. Az.
Max El.
End time (UTC)
End Az.
4 mins2025-06-19 11:02:08.533Z310.922° NW2025-06-19 11:04:08.533Z116.127° SE44.688°2025-06-19 11:06:08.533Z129.86° SE
4 mins2025-06-20 03:34:08.533Z192.37° SSW2025-06-20 03:35:08.533Z147.534° SSE35.897°2025-06-20 03:38:08.533Z61.035° ENE
|